Date String (YYYY-MM-DD hh:mm:ss) UTC,Instrument flags,Ambient pressure (hPa),Sample flow (lpm),Bypass flow (lpm),Sample temperature (°C),Ambient temperature (°C),ASC tube jacket temperature (°C),LED temperature (°C),Box temperature (°C),Sample RH (%),Span deviation,Mass concentration (μg/m³),Mass concentration (μg/m³),Mass concentration (μg/m³)
DateTimeUTC,F1_M11,P_M11,Q1_M11,Q2_M11,T1_M11,T2_M11,T3_M11,T4_M11,T5_M11,U1_M11,ZSPAN_M11,X0_M11,X2_M11,X1_M11
2022-09-26 08:00:00,,0833.2,5.00,0.00,30.1,28.4,00.0,38.9,31.9,15.2,0000.1,0012.46,0006.63,0006.06
2022-09-26 08:01:00,,0833.2,4.99,0.00,30.1,28.4,00.0,38.9,31.9,15.2,-000.4,0012.09,0006.61,0006.06
2022-09-26 08:02:00,,0833.1,5.01,0.00,30.1,28.4,00.0,38.9,31.9,15.2,-000.5,0012.01,0006.58,0006.07
2022-09-26 08:03:00,,0833.1,4.99,0.00,30.1,28.4,00.0,38.9,31.9,15.2,-000.7,0011.90,0006.58,0006.07
2022-09-26 08:04:00,,0833.1,5.02,0.00,30.1,28.4,00.0,38.9,31.9,15.2,-000.4,0011.90,0006.57,0006.08
2022-09-26 08:05:00,,0833.1,4.99,0.00,30.1,28.4,00.0,38.9,31.9,15.2,-000.7,0011.80,0006.61,0006.07
2022-09-26 08:06:00,,0833.1,5.01,0.00,30.1,28.4,00.0,38.9,31.9,15.1,-001.2,0011.60,0006.62,0006.07
2022-09-26 08:07:00,,0833.1,4.99,0.00,30.1,28.4,00.0,38.9,31.9,15.1,-001.4,0011.70,0006.62,0006.06
2022-09-26 08:08:00,,0833.1,5.02,0.00,30.1,28.4,00.0,38.9,31.9,15.2,-001.0,0011.77,0006.63,0006.04
2022-09-26 08:09:00,,0833.1,4.99,0.00,30.1,28.4,00.0,38.9,31.9,15.3,-000.8,0011.05,0006.62,0006.04
2022-09-26 08:10:00,,0833.1,5.00,0.00,30.1,28.4,00.0,38.9,31.9,15.3,-000.8,0011.16,0006.67,0006.04
2022-09-26 08:11:00,,0833.1,4.99,0.00,30.1,28.4,00.0,38.9,31.9,15.2,-000.4,0011.16,0006.71,0006.04
2022-09-26 08:12:00,,0833.1,5.01,0.00,30.1,28.4,00.0,38.9,31.9,15.3,0000.0,0011.35,0006.76,0006.06
2022-09-26 08:13:00,,0833.1,5.00,0.00,30.1,28.4,00.0,38.9,31.9,15.4,-000.3,0011.70,0006.79,0006.09
2022-09-26 08:14:00,,0833.1,4.99,0.00,30.1,28.4,00.0,38.9,31.9,15.4,0000.5,0012.05,0006.86,0006.11
2022-09-26 08:15:00,,0833.1,5.01,0.00,30.1,28.4,00.0,38.9,31.8,15.4,0000.9,0012.26,0006.91,0006.12
2022-09-26 08:16:00,,0833.1,4.99,0.00,30.1,28.4,00.0,38.9,31.9,15.4,0001.2,0012.33,0006.92,0006.15
2022-09-26 08:17:00,,0833.2,5.02,0.00,30.1,28.4,00.0,38.9,31.9,15.3,0002.2,0012.20,0006.90,0006.18
2022-09-26 08:18:00,,0833.1,4.99,0.00,30.1,28.4,00.0,38.9,31.8,15.3,0002.4,0012.31,0006.93,0006.19
2022-09-26 08:19:00,,0833.1,5.01,0.00,30.1,28.4,00.0,38.9,31.8,15.3,0002.3,0012.39,0006.94,0006.23
2022-09-26 08:20:00,,0833.1,4.99,0.00,30.1,28.4,00.0,38.9,31.9,15.3,0002.7,0012.40,0006.98,0006.26
2022-09-26 08:21:00,,0833.1,5.00,0.00,30.1,28.4,00.0,38.9,31.9,15.3,0002.9,0012.44,0006.97,0006.28
2022-09-26 08:22:00,,0833.1,5.00,0.00,30.1,28.4,00.0,38.9,31.9,15.3,0002.6,0012.66,0006.99,0006.29
2022-09-26 08:23:00,,0833.1,5.00,0.00,30.1,28.4,00.0,38.9,31.8,15.2,0002.6,0012.37,0006.98,0006.29
2022-09-26 08:24:00,,0833.1,5.00,0.00,30.0,28.4,00.0,38.9,31.8,15.1,0002.5,0011.81,0006.94,0006.26
2022-09-26 08:25:00,,0833.1,4.99,0.00,30.0,28.4,00.0,38.9,31.8,15.1,0002.3,0011.48,0006.89,0006.24
2022-09-26 08:26:00,,0833.0,5.02,0.00,30.0,28.4,00.0,38.8,31.9,15.1,0002.4,0011.79,0006.87,0006.23
2022-09-26 08:27:00,,0833.0,5.00,0.00,30.0,28.4,00.0,38.8,31.8,15.1,0002.5,0011.84,0006.86,0006.19
2022-09-26 08:28:00,,0833.0,5.00,0.00,30.0,28.3,00.0,38.8,31.8,15.0,0002.4,0011.78,0006.81,0006.17
2022-09-26 08:29:00,,0833.0,5.01,0.00,30.0,28.3,00.0,38.8,31.8,15.1,0002.4,0011.48,0006.76,0006.15
2022-09-26 08:30:00,,0833.0,4.99,0.00,30.0,28.3,00.0,38.8,31.8,15.0,0002.3,0011.40,0006.73,0006.12
2022-09-26 08:31:00,,0833.0,5.01,0.00,30.0,28.3,00.0,38.8,31.7,15.0,0001.8,0011.79,0006.69,0006.09
2022-09-26 08:32:00,,0833.0,4.99,0.00,30.0,28.3,00.0,38.8,31.7,15.1,0001.8,0012.32,0006.68,0006.07
2022-09-26 08:33:00,,0832.9,5.01,0.00,30.0,28.3,00.0,38.8,31.8,15.4,0001.9,0012.09,0006.71,0006.09
2022-09-26 08:34:00,,0832.8,4.99,0.00,30.0,28.3,00.0,38.8,31.8,15.2,0001.9,0011.93,0006.73,0006.10
2022-09-26 08:35:00,,0832.9,5.01,0.00,30.0,28.3,00.0,38.8,31.8,15.1,0002.2,0011.88,0006.73,0006.10
2022-09-26 08:36:00,,0832.8,4.99,0.00,30.0,28.3,00.0,38.8,31.8,15.0,0002.5,0011.90,0006.72,0006.08
2022-09-26 08:37:00,,0832.8,5.01,0.00,30.0,28.3,00.0,38.8,31.8,15.1,0002.2,0011.52,0006.74,0006.08
2022-09-26 08:38:00,,0832.8,4.99,0.00,30.0,28.3,00.0,38.8,31.8,15.2,0002.2,0011.69,0006.74,0006.08
2022-09-26 08:39:00,,0832.8,5.00,0.00,30.0,28.3,00.0,38.8,31.8,15.3,0002.1,0011.92,0006.81,0006.10
2022-09-26 08:40:00,,0832.9,5.01,0.00,30.0,28.3,00.0,38.8,31.7,15.4,0002.2,0012.47,0006.83,0006.11
2022-09-26 08:41:00,,0832.8,4.99,0.00,30.0,28.3,00.0,38.8,31.7,15.3,0002.1,0012.64,0006.85,0006.12
2022-09-26 08:42:00,,0832.8,5.01,0.00,30.0,28.3,00.0,38.8,31.8,15.2,0002.3,0012.29,0006.85,0006.12
2022-09-26 08:43:00,,0832.8,4.99,0.00,30.0,28.3,00.0,38.8,31.8,15.3,0002.3,0011.99,0006.84,0006.12
2022-09-26 08:44:00,,0832.8,5.01,0.00,30.0,28.3,00.0,38.8,31.8,15.5,0002.3,0012.44,0006.83,0006.10
2022-09-26 08:45:00,,0832.7,4.99,0.00,30.0,28.3,00.0,38.8,31.7,15.6,0002.4,0013.03,0006.83,0006.08
2022-09-26 08:46:00,,0832.7,5.01,0.00,30.0,28.3,00.0,38.8,31.8,15.4,0002.2,0013.26,0006.85,0006.08
2022-09-26 08:47:00,,0832.7,4.99,0.00,30.0,28.3,00.0,38.8,31.8,15.1,0002.0,0013.23,0006.85,0006.08
2022-09-26 08:48:00,,0832.7,5.01,0.00,30.0,28.3,00.0,38.8,31.8,15.1,0002.3,0012.93,0006.75,0006.05
2022-09-26 08:49:00,,0832.7,4.99,0.00,30.0,28.3,00.0,38.8,31.8,15.3,0002.5,0012.56,0006.71,0006.03
2022-09-26 08:50:00,,0832.8,5.02,0.00,29.9,28.3,00.0,38.8,31.7,15.3,0002.0,0013.05,0006.67,0005.99
2022-09-26 08:51:00,,0832.8,4.99,0.00,29.9,28.3,00.0,38.7,31.7,15.1,0001.5,0012.74,0006.65,0005.96
2022-09-26 08:52:00,,0832.8,5.01,0.00,29.9,28.3,00.0,38.7,31.7,15.0,0000.0,0012.96,0006.62,0005.94
2022-09-26 08:53:00,,0832.8,4.99,0.00,29.9,28.3,00.0,38.7,31.7,15.0,0000.0,0013.21,0006.64,0005.92
2022-09-26 08:54:00,,0832.8,5.00,0.00,29.9,28.3,00.0,38.7,31.7,15.2,0000.0,0013.51,0006.61,0005.89
2022-09-26 08:55:00,,0832.8,5.00,0.00,29.9,28.3,00.0,38.7,31.8,15.2,0000.0,0013.60,0006.55,0005.85
2022-09-26 08:56:00,,0832.8,4.99,0.00,29.9,28.2,00.0,38.7,31.7,15.1,0000.0,0013.01,0006.52,0005.83
2022-09-26 08:57:00,,0832.8,5.00,0.00,29.9,28.2,00.0,38.7,31.7,15.1,0000.0,0012.75,0006.48,0005.81
2022-09-26 08:58:00,,0832.8,5.01,0.00,29.9,28.2,00.0,38.7,31.7,15.1,0000.0,0012.62,0006.47,0005.80
2022-09-26 08:59:00,,0832.8,4.98,0.00,29.9,28.2,00.0,38.7,31.8,15.0,0000.0,0012.99,0006.51,0005.81
